Location: Hamilton Branch State Park
(33.7552°N, 82.2209°W)
Time: 01:16:46
(UTC-04:00)

Envisat - Visible Passes

Search period start: 20 September 2019 00:00
Search period end: 30 September 2019 00:00
Orbit: 764 x 766 km, 98.1° (Epoch: 19 September)

Date Brightness Start Highest point End Pass type
(mag) Time Alt. Az. Time Alt. Az. Time Alt. Az.
20 Sep 4.7 20:22:27 10° SSW 20:27:05 36° W 20:31:44 10° NNW visible
21 Sep 3.1 19:45:12 10° SSE 19:50:16 88° WSW 19:55:22 10° NNW visible
22 Sep 5.7 20:49:06 10° SW 20:52:44 20° W 20:56:22 10° NW visible
23 Sep 4.2 20:10:56 10° S 20:15:48 47° W 20:20:41 10° NNW visible
25 Sep 5.3 20:37:15 10° SSW 20:41:24 25° W 20:45:34 10° NW visible
26 Sep 3.6 19:59:30 10° S 20:04:31 62° W 20:09:33 10° NNW visible
27 Sep 6.0 21:04:40 10° WSW 21:07:06 13° W 21:09:33 10° WNW visible
28 Sep 4.9 20:25:34 10° SSW 20:30:05 33° W 20:34:38 10° NNW visible
29 Sep 3.2 19:48:11 10° S 19:53:15 80° WSW 19:58:21 10° NNW visible
